When you browse on this site, cookies collect data to enhance your experience and personalize the content and advertising you see.
Visit our Privacy Policy to learn more. By continuing to use the site, you agree to this use of cookies and data.
  • In Denmark
  • List of Countries
  • For 7 days
  • Water Temperature
  • Satellite Maps
  • Weather Map
  • Weather Widgets
  • user-avatar
    Login

    Hourly Weather Guanare

    Today, 10 December, Monday

    Time Temperature Precipitation Wind Pressure Humidity
    00:00 +25°C° 0 mm 1 mps 743 mmHg 73%
    01:00 +24°C° 0 mm 1 mps 743 mmHg 70%
    02:00 +24°C° 0 mm 1 mps 743 mmHg 71%
    03:00 +23°C° 0 mm 1 mps 743 mmHg 72%
    04:00 +23°C° 0 mm 1 mps 743 mmHg 73%
    05:00 +24°C° 0 mm 1 mps 744 mmHg 73%
    06:00 +24°C° 0 mm 1 mps 744 mmHg 73%
    07:00 +25°C° 0 mm 1 mps 744 mmHg 73%
    08:00 +27°C° 0 mm 1 mps 745 mmHg 66%
    09:00 +29°C° 0 mm 2 mps 745 mmHg 60%
    10:00 +31°C° 0 mm 2 mps 745 mmHg 53%
    11:00 +32°C° 0 mm 2 mps 744 mmHg 51%
    12:00 +32°C° 0 mm 2 mps 743 mmHg 48%
    13:00 +34°C° 0 mm 2 mps 743 mmHg 46%
    14:00 +32°C° 0 mm 2 mps 742 mmHg 48%
    15:00 +32°C° 0 mm 1 mps 742 mmHg 50%
    16:00 +31°C° 0 mm 1 mps 741 mmHg 52%
    17:00 +29°C° 0 mm 1 mps 741 mmHg 58%
    18:00 +27°C° 0 mm 1 mps 742 mmHg 64%
    19:00 +25°C° 0 mm 1 mps 742 mmHg 70%
    20:00 +25°C° 0 mm 1 mps 743 mmHg 68%
    21:00 +25°C° 0 mm 1 mps 743 mmHg 66%
    22:00 +24°C° 0 mm 1 mps 744 mmHg 64%
    23:00 +24°C° 0 mm 1 mps 744 mmHg 63%

    Tomorrow, 11 December, Tuesday

    Time Temperature Precipitation Wind Pressure Humidity
    00:00 +24°C° 0 mm 1 mps 743 mmHg 62%
    01:00 +24°C° 0 mm 1 mps 743 mmHg 62%
    02:00 +24°C° 0 mm 1 mps 743 mmHg 64%
    03:00 +24°C° 0 mm 1 mps 743 mmHg 66%
    04:00 +24°C° 0 mm 1 mps 743 mmHg 68%
    05:00 +24°C° 0 mm 1 mps 744 mmHg 69%
    06:00 +25°C° 0 mm 1 mps 744 mmHg 70%
    07:00 +26°C° 0 mm 1 mps 745 mmHg 70%
    08:00 +27°C° 0 mm 1 mps 745 mmHg 66%
    09:00 +28°C° 0 mm 1 mps 745 mmHg 63%
    10:00 +30°C° 0 mm 2 mps 745 mmHg 59%
    11:00 +31°C° 0 mm 2 mps 744 mmHg 55%
    12:00 +32°C° 0 mm 1 mps 743 mmHg 52%
    13:00 +33°C° 0 mm 1 mps 743 mmHg 49%
    14:00 +33°C° 0 mm 1 mps 742 mmHg 50%
    15:00 +32°C° 0 mm 1 mps 742 mmHg 52%
    16:00 +32°C° 0 mm 1 mps 741 mmHg 53%
    17:00 +30°C° 0 mm 1 mps 742 mmHg 60%
    18:00 +28°C° 0 mm 1 mps 742 mmHg 66%
    19:00 +26°C° 0 mm 1 mps 742 mmHg 73%
    20:00 +26°C° 0 mm 1 mps 743 mmHg 73%
    21:00 +26°C° 0 mm 1 mps 743 mmHg 73%
    22:00 +25°C° 0 mm 1 mps 744 mmHg 73%
    23:00 +25°C° 0.6 mm 1 mps 744 mmHg 74%

    Day after tomorrow, 12 December, Wednesday

    Time Temperature Precipitation Wind Pressure Humidity
    00:00 +25°C° 0.6 mm 1 mps 743 mmHg 74%
    01:00 +24°C° 0.6 mm 1 mps 743 mmHg 75%
    02:00 +24°C° 0.5 mm 1 mps 743 mmHg 77%
    03:00 +24°C° 0.5 mm 1 mps 743 mmHg 79%
    04:00 +24°C° 0.5 mm 1 mps 743 mmHg 81%
    05:00 +25°C° 0.2 mm 1 mps 743 mmHg 81%
    06:00 +25°C° 0.2 mm 1 mps 744 mmHg 81%
    07:00 +26°C° 0.2 mm 1 mps 744 mmHg 81%
    08:00 +28°C° 0.1 mm 1 mps 744 mmHg 75%
    09:00 +29°C° 0.1 mm 1 mps 745 mmHg 70%
    10:00 +31°C° 0.1 mm 2 mps 745 mmHg 64%
    11:00 +32°C° 0.1 mm 2 mps 744 mmHg 60%
    12:00 +34°C° 0.1 mm 2 mps 743 mmHg 56%
    13:00 +35°C° 0.1 mm 2 mps 742 mmHg 53%
    14:00 +34°C° 0.1 mm 2 mps 741 mmHg 54%
    15:00 +33°C° 0.1 mm 1 mps 741 mmHg 55%
    16:00 +33°C° 0.1 mm 1 mps 740 mmHg 56%
    17:00 +31°C° 0 mm 1 mps 741 mmHg 62%
    18:00 +29°C° 0 mm 1 mps 741 mmHg 67%
    19:00 +27°C° 0 mm 1 mps 742 mmHg 73%
    20:00 +27°C° 0.2 mm 1 mps 742 mmHg 74%
    21:00 +26°C° 0.2 mm 1 mps 742 mmHg 75%
    22:00 +26°C° 0.2 mm 1 mps 743 mmHg 75%
    23:00 +26°C° 0.2 mm 1 mps 742 mmHg 75%

    13 December, Thursday

    Time Temperature Precipitation Wind Pressure Humidity
    00:00 +25°C° 0.2 mm 1 mps 742 mmHg 75%
    01:00 +25°C° 0.2 mm 1 mps 742 mmHg 74%
    02:00 +25°C° 0 mm 1 mps 742 mmHg 75%
    03:00 +25°C° 0 mm 1 mps 742 mmHg 76%
    04:00 +25°C° 0 mm 1 mps 742 mmHg 77%
    05:00 +25°C° 0 mm 1 mps 743 mmHg 76%
    06:00 +26°C° 0 mm 1 mps 743 mmHg 74%
    07:00 +27°C° 0 mm 1 mps 744 mmHg 73%
    08:00 +28°C° 0.1 mm 1 mps 744 mmHg 67%
    09:00 +30°C° 0.1 mm 2 mps 744 mmHg 62%
    10:00 +32°C° 0.1 mm 2 mps 744 mmHg 56%
    11:00 +32°C° 0.5 mm 2 mps 743 mmHg 55%
    12:00 +34°C° 0.5 mm 2 mps 742 mmHg 54%
    13:00 +34°C° 0.5 mm 2 mps 742 mmHg 54%
    14:00 +34°C° 0.1 mm 2 mps 741 mmHg 54%
    15:00 +34°C° 0.1 mm 2 mps 741 mmHg 54%
    16:00 +34°C° 0.1 mm 2 mps 740 mmHg 55%
    17:00 +31°C° 0 mm 1 mps 741 mmHg 60%
    18:00 +29°C° 0 mm 1 mps 741 mmHg 66%
    19:00 +27°C° 0 mm 1 mps 742 mmHg 71%
    20:00 +27°C° 0 mm 1 mps 742 mmHg 70%
    21:00 +27°C° 0 mm 1 mps 742 mmHg 68%
    22:00 +27°C° 0 mm 1 mps 743 mmHg 67%
    23:00 +26°C° 0 mm 1 mps 743 mmHg 68%

    14 December, Friday

    Time Temperature Precipitation Wind Pressure Humidity
    00:00 +26°C° 0 mm 1 mps 742 mmHg 69%
    01:00 +26°C° 0 mm 1 mps 742 mmHg 70%
    02:00 +25°C° 0 mm 1 mps 742 mmHg 72%
    03:00 +25°C° 0 mm 1 mps 742 mmHg 75%
    04:00 +25°C° 0 mm 1 mps 742 mmHg 78%
    05:00 +25°C° 0 mm 1 mps 743 mmHg 76%
    06:00 +26°C° 0 mm 1 mps 743 mmHg 75%
    07:00 +26°C° 0 mm 1 mps 744 mmHg 74%
    08:00 +28°C° 0 mm 1 mps 744 mmHg 68%
    09:00 +30°C° 0 mm 2 mps 744 mmHg 63%
    10:00 +31°C° 0 mm 2 mps 745 mmHg 57%
    11:00 +32°C° 0.1 mm 2 mps 744 mmHg 54%
    12:00 +34°C° 0.1 mm 2 mps 743 mmHg 51%
    13:00 +34°C° 0.1 mm 2 mps 742 mmHg 48%
    14:00 +34°C° 0 mm 2 mps 741 mmHg 49%
    15:00 +34°C° 0 mm 2 mps 741 mmHg 50%
    16:00 +33°C° 0 mm 1 mps 740 mmHg 51%
    17:00 +31°C° 0 mm 1 mps 741 mmHg 56%
    18:00 +29°C° 0 mm 1 mps 741 mmHg 62%
    19:00 +27°C° 0 mm 1 mps 742 mmHg 68%
    20:00 +26°C° 0 mm 1 mps 742 mmHg 66%
    21:00 +26°C° 0 mm 1 mps 743 mmHg 65%
    22:00 +26°C° 0 mm 1 mps 743 mmHg 63%
    23:00 +26°C° 0 mm 1 mps 743 mmHg 64%

    15 December, Saturday

    Time Temperature Precipitation Wind Pressure Humidity
    00:00 +25°C° 0 mm 1 mps 743 mmHg 64%
    01:00 +25°C° 0 mm 1 mps 743 mmHg 65%
    02:00 +25°C° 0 mm 1 mps 743 mmHg 67%
    03:00 +25°C° 0 mm 1 mps 743 mmHg 70%
    04:00 +25°C° 0 mm 1 mps 743 mmHg 72%
    05:00 +25°C° 0 mm 1 mps 744 mmHg 72%
    06:00 +26°C° 0 mm 1 mps 744 mmHg 72%
    07:00 +26°C° 0 mm 1 mps 745 mmHg 72%
    08:00 +28°C° 0 mm 2 mps 745 mmHg 65%
    09:00 +29°C° 0 mm 2 mps 745 mmHg 59%
    10:00 +31°C° 0 mm 2 mps 745 mmHg 52%
    11:00 +32°C° 0 mm 2 mps 744 mmHg 49%
    12:00 +34°C° 0 mm 2 mps 743 mmHg 46%
    13:00 +35°C° 0 mm 2 mps 742 mmHg 42%
    14:00 +34°C° 0 mm 2 mps 742 mmHg 43%
    15:00 +34°C° 0 mm 2 mps 742 mmHg 44%
    16:00 +34°C° 0 mm 2 mps 741 mmHg 46%
    17:00 +30°C° 0 mm 1 mps 742 mmHg 51%
    18:00 +28°C° 0 mm 1 mps 742 mmHg 57%
    19:00 +26°C° 0 mm 1 mps 743 mmHg 62%
    20:00 +26°C° 0 mm 1 mps 743 mmHg 60%
    21:00 +25°C° 0 mm 1 mps 744 mmHg 58%
    22:00 +25°C° 0 mm 1 mps 744 mmHg 55%
    23:00 +25°C° 0 mm 1 mps 744 mmHg 57%
    Show more